Weather History for Morgantown, WV

Change the Weather History Date:

Wednesday, October 17, 2012

  Actual Average Record
Temperature  
Mean Temperature 57 °F 54 °F  
Max Temperature 74 °F 64 °F 84 °F (1968)
Min Temperature 39 °F 43 °F 27 °F (1982)
Degree Days  
Heating Degree Days 8 11  
Month to date heating degree days 153 156  
Since 1 July heating degree days 253 253  
Cooling Degree Days 0 0  
Month to date cooling degree days 17 10  
Year to date cooling degree days 1129 811  
Growing Degree Days 7 (Base 50)    
Moisture  
Dew Point 40 °F    
Average Humidity 60    
Maximum Humidity 89    
Minimum Humidity 31    
Precipitation  
Precipitation 0.00 in 0.08 in 1.24 in (1948)
Month to date precipitation 0.68 1.55  
Year to date precipitation 24.66 34.23  
Sea Level Pressure  
Sea Level Pressure 29.88 in    
Wind  
Wind Speed 4 mph (SSE)    
Max Wind Speed 13 mph    
Max Gust Speed 17 mph    
Visibility 10 miles    
Events      
T = Trace of Precipitation, MM = Missing Value Source: NWS Daily Summary

Daily Weather History Graph

Daily Weather History Graph

Search for Another Location

Airport:

Trip Planner

Search our weather history database for the weather conditions in past years. The results will help you decide how hot, cold, wet, or windy it might be!

Date:

Astronomy

Oct. 17, 2012 Rise Set
Actual Time 7:32 AM EDT 6:36 PM EDT
Civil Twilight 7:05 AM EDT 7:04 PM EDT
Nautical Twilight 6:33 AM EDT 7:35 PM EDT
Astronomical Twilight 6:02 AM EDT 8:06 PM EDT
Moon 10:04 AM EDT (10/17) 8:11 PM EDT (10/17)
Length of Visible Light 11h 58m
Length of Day
11h 04m
Waxing Crescent, 7% of the Moon is Illuminated
Oct 17
Waxing Crescent
Oct 21
First Quarter
Oct 29
Full
Nov 6
Last Quarter
Nov 13
New

Hourly Weather History & Observations

Time (EDT) Temp. Windchill Dew Point Humidity Pressure Visibility Wind Dir Wind Speed Gust Speed Precip Events Conditions
12:53 AM 44.1 °F 42.5 °F 39.0 °F 82% 29.93 in 10.0 mi NNW 3.5 mph - N/A   Clear
1:53 AM 44.1 °F - 39.9 °F 85% 29.94 in 10.0 mi Calm Calm - N/A   Clear
2:53 AM 43.0 °F - 39.9 °F 89% 29.94 in 10.0 mi Calm Calm - N/A   Clear
3:53 AM 44.1 °F - 39.9 °F 85% 29.92 in 10.0 mi Calm Calm - N/A   Clear
4:53 AM 42.1 °F - 39.9 °F 92% 29.93 in 10.0 mi Calm Calm - N/A   Clear
5:53 AM 44.1 °F - 39.0 °F 82% 29.94 in 10.0 mi Calm Calm - N/A   Clear
6:53 AM 41.0 °F - 37.9 °F 89% 29.95 in 10.0 mi Calm Calm - N/A   Clear
7:53 AM 41.0 °F - 37.9 °F 89% 29.95 in 10.0 mi Calm Calm - N/A   Clear
8:53 AM 46.0 °F - 42.1 °F 86% 29.95 in 10.0 mi Calm Calm - N/A   Clear
9:53 AM 57.0 °F - 43.0 °F 59% 29.95 in 10.0 mi Calm Calm - N/A   Clear
10:53 AM 61.0 °F - 41.0 °F 48% 29.94 in 10.0 mi SSW 3.5 mph - N/A   Clear
11:53 AM 66.9 °F - 39.0 °F 36% 29.91 in 1.8 mi North - - N/A   Haze
12:02 PM 66.2 °F - 41.0 °F 40% 29.91 in - North - - N/A   Clear
12:53 PM 68.0 °F - 37.9 °F 33% 29.90 in 10.0 mi Variable 5.8 mph - N/A   Clear
1:53 PM 70.0 °F - 39.9 °F 33% 29.86 in 10.0 mi SSE 5.8 mph - N/A   Clear
2:53 PM 72.0 °F - 42.1 °F 34% 29.84 in 10.0 mi Variable 4.6 mph - N/A   Clear
3:53 PM 72.0 °F - 43.0 °F 35% 29.83 in 10.0 mi Variable 3.5 mph - N/A   Clear
4:53 PM 73.9 °F - 45.0 °F 35% 29.82 in 10.0 mi Calm Calm - N/A   Clear
5:53 PM 72.0 °F - 43.0 °F 35% 29.81 in 10.0 mi Calm Calm - N/A   Clear
6:53 PM 64.9 °F - 41.0 °F 42% 29.82 in 10.0 mi ESE 5.8 mph - N/A   Clear
7:53 PM 64.0 °F - 34.0 °F 33% 29.82 in 10.0 mi ESE 10.4 mph - N/A   Clear
8:53 PM 63.0 °F - 37.0 °F 38% 29.81 in 10.0 mi SE 9.2 mph - N/A   Clear
9:53 PM 62.1 °F - 37.9 °F 41% 29.80 in 10.0 mi SSE 12.7 mph - N/A   Clear
10:53 PM 62.1 °F - 35.1 °F 37% 29.79 in 10.0 mi SSE 8.1 mph - N/A   Clear
11:53 PM 60.1 °F - 36.0 °F 41% 29.78 in 10.0 mi SSE 9.2 mph - N/A   Clear